Погода в Перемышле

Россия / Калужская область     54°15′50″N   36°09′35″E
темп.,
°C
ветер,
м/с
пор.,
м/с
влажн.,
%
обл.,
%
осадки,
мм/ч
давл.,
гПа
погр.,
м
23 октября, сб
сб2300:00+6юз51273100 0.0 1006607
03:00+6юз61268100 0.0 1006724
06:00+5юз5127211 0.0 1005605
09:00+6юз612695 0.0 1006942
12:00+8зюз7106375 0.0 10071143
15:00+8зюз6958100 0.0 10081530
18:00+5зюз510847 0.6 1010713
21:00+5зюз6127488 0.6 1011777
24 октября, вс
вс2400:00+5зюз61270100 0.0 1011907
03:00+5зюз6127692 0.0 1012977
06:00+4зсз61092100 0.4 10131006
09:00+3зсз51091100 0.8 10151044
12:00+4зсз6107691 0.3 10171167
15:00+4сз6106789 0.5 10181218
18:00+3сз6117381 0.0 1021905
21:00+1ссз511775 0.0 1024702
25 октября, пн
пн2500:000ссз410885 0.0 1026429
03:00−2сз37935 0.0 1028252
06:00−2сз26945 0.0 1030174
09:00−1сз24836 0.0 1031207
12:00+3з335983 0.0 1031771
15:00+4зюз455414 0.0 1030867
18:00+1юз387399 0.0 1030165
21:000юз411805 0.0 1030249
26 октября, вт
вт2600:000юз4137788 0.0 1029320
03:000юз41377100 0.0 1029318
06:000юз41376100 0.0 1027332
09:00+1юз51469100 0.0 1027444
12:00+5юз61355100 0.0 1026582
15:00+6юз6135486 0.0 1024683
18:00+4юз51465100 0.0 1024479
21:00+3юз5147128 0.0 1023454
27 октября, ср
ср2700:00+2юз513735 0.0 1023389
03:00+2ююз413735 0.0 1022341
06:00+1ююз413730 0.0 1020344
09:00+2юз514680 0.0 1019465
12:00+7юз6125763 0.0 1018653
15:00+6зюз6968100 0.2 1017880
18:00+4зюз51089100 1.4 1018534
21:00+5з4993100 1.4 1019385